Regional Weather Roundup
Issued by NWS Charleston, SC

Home | Current Version | Previous Version | Text Only | Print | Product List | Glossary On
Versions: 1 2 3 4 5 6 7 8 9 10 11 12 13 14 15 16 17 18 19 20 21 22 23 24 25 26 27 28 29 30 31 32 33 34 35 36 37 38 39 40 41 42 43 44 45 46 47 48 49 50
000
ASUS42 KCHS 210911
RWRCHS
REGIONAL WEATHER ROUNDUP
NATIONAL WEATHER SERVICE CHARLESTON SC
500 AM EDT TUE APR 21 2015

NOTE: "FAIR" INDICATES FEW OR NO CLOUDS BELOW 12,000 FEET WITH NO
SIGNIFICANT WEATHER AND/OR OBSTRUCTIONS TO VISIBILITY.

NOT ALL STATIONS ARE QUALITY CONTROLLED BY THE NATIONAL
WEATHER SERVICE. USE DATA WITH CAUTION...ESPECIALLY
DEWPOINT OBSERVATIONS.

SCZ027-030-031-034>040-042>050-211000-
...SOUTHEAST SOUTH CAROLINA...

CITY           SKY/WX    TMP DP  RH WIND       PRES   REMARKS
N CHARLESTON   CLEAR     64  60  87 SW6       29.86R
WATERFRONT PRK   N/A     66 N/A N/A W6          N/A
MOUNT PLEASANT FAIR      66  63  88 CALM      29.86R
PINOPOLIS      NOT AVBL
MONCKS CORNER  FAIR      63  59  88 SW3       29.85R
SUMMERVILLE    FAIR      61  61 100 CALM      29.86R
BEAUFORT MCAS  PTCLDY    63  61  93 W7        29.86S
BEAUFORT ARPT  FAIR      64  63  94 CALM      29.86S
HILTON HEAD IS PTCLDY    64  63  94 W6        29.88S
WALTERBORO     SUNNY     61  59  94 SW5       29.87R
ALLENDALE      FAIR      61  61 100 CALM      29.87R

...SOUTHERN MIDLANDS AND PEE DEE...

CITY           SKY/WX    TMP DP  RH WIND       PRES   REMARKS
GEORGETOWN     NOT AVBL
KINGSTREE      NOT AVBL
ORANGEBURG     CLEAR     59  53  80 SW6       29.85R
BARNWELL       FAIR      57  55  94 SW3       29.86S
AIKEN          FAIR      54  46  76 W5        29.88S
MANNING        FAIR      61  55  82 SW7       29.83R
COLUMBIA       CLEAR     58  49  72 W6        29.83R
SUMTER         CLEAR     59  53  80 W7        29.81R
FLORENCE       CLEAR     61  56  83 W8        29.80R
MYRTLE BEACH   CLEAR     64  57  77 SW9       29.83S
N MYRTLE BEACH CLEAR     65  59  81 SW9       29.80S

$$

GAZ063-065-086>088-099>101-113>116-118-119-134>141-150-211000-
...SOUTHEAST GEORGIA...

CITY           SKY/WX    TMP DP  RH WIND       PRES   REMARKS
SAVANNAH ARPT  PTCLDY    62  60  93 W3        29.87F
HUNTER AAF     PTCLDY    62  62 100 SW5       29.86R
FORT STEWART   NOT AVBL
STATESBORO       N/A     62  62 100 W6        29.88S
SYLVANIA       MOSUNNY   59  59 100 NW3       29.89R
CLAXTON        FAIR      61  61 100 W3        29.89S

...CSRA...CENTRAL AND FAR SOUTHEAST GEORGIA...

CITY           SKY/WX    TMP DP  RH WIND       PRES   REMARKS
THOMSON        CLEAR     54  53  97 CALM      29.91S
AUGUSTA-BUSH   CLEAR     57  49  74 W8        29.85S
AUGUSTA-DANIEL CLEAR     60  48  64 W7        29.86R
SWAINSBORO     NOT AVBL
VIDALIA        MOCLDY    63  61  94 NW3       29.90R
EASTMAN        CLOUDY    60  57  89 CALM      29.94R
HAZLEHURST     FAIR      63  63 100 W3        29.90R
ALMA           PTCLDY    63  62  97 NW5       29.90R
WAYCROSS       CLOUDY    69  68  96 W6        29.90R
JESUP          PTSUNNY   68  64  88 W3        29.89S
BAXLEY         FAIR      63  63 100 NW3       29.89S
BRUNSWICK      CLOUDY    66  63  88 SW5       29.90S
SAINT SIMONS   MOCLDY    64  63  96 SW6       29.90S

$$

SCZ027-028-034-036>038-045-046-048>050-GAZ119-141-211000-
...LAKE AND SUPPLEMENTAL COASTAL OBSERVATIONS...

STATION/POSITION TIME  TEMP    WIND        PRES    WAVE   SWELL
                       AIR SEA DIR/SP/G            HT/PER HT/PER/DIR
                 (UTC) (F)     (DEG/KT/KT) (MB)    (FT/S) (FT/S/D)
UPR LAKE MARION  NOT AVBL
WINYAH BAY       0745   66     250/  6     1009.0
LAKE MURRAY      0800   62     270/ 10/ 14 1009.5R
ACE BASIN NERRS  NOT AVBL
FORT PULASKI     0800   66 71  240/  8/ 14 1011.9R
SAPELO ISLAND    0800   67     240/ 10     1012.0S

$$

ANZ835-935-AMZ111-154-330-350-352-354-370-450-454-472-211000-
...C-MAN AND BUOY OBSERVATIONS...

STATION/POSITION TIME  TEMP    WIND        PRES    WAVE   SWELL
                       AIR SEA DIR/SP/G            HT/PER HT/PER/DIR
                 (UTC) (F)     (DEG/KT/KT) (MB)    (FT/S) (FT/S/D)
BUOY 41004       0850   71 73  250/ 21/ 27 1009.8R   5/ 6   2/ 9
BUOY 41008       0850   68 68  240/ 14/ 17 1012.1R   2/ 4   2/110/ 9
FOLLY BEACH CMAN 0800   67     240/  7/ 11 1010.6R
CAPERS NEARSHORE NOT AVBL
FRIPP NEARSHORE  NOT AVBL


STATION/POSITION TIME  TEMP    WIND        PRES    WAVE   SWELL
                       AIR SEA DIR/SP/G            HT/PER HT/PER/DIR
                 (UTC) (F)     (DEG/KT/KT) (MB)    (FT/S) (FT/S/D)
5E ST. MARYS GA  0821      69                N/A     2/12   2/100/12
FRYING PAN BUOY  0850   72 72  250/ 25/ 31 1009.2R   8/ 6   2/190/10
BUOY 41025       0850   73 74  240/ 25/ 31 1006.7R   8/ 7   2/110/12
CAPE LOOKOUT NC  0800   68     240/ 12/ 17 1007.4R
BUOY 41002       0850   72 72  220/ 14/ 16 1011.0F   5/ 7   3/230/ 7
BUOY 41010       0820   76 78  170/  8/ 10 1012.7R
ST AUGUSTINE FL  0900   64 63  230/  6/  7 1013.6F


$$


USA.gov is the U.S. government's official web portal to all federal, state and local government web resources and services.